This is the latest recevied weather packets stored in our database for station/object KM5R. If no packets are shown the sender has not sent any weather packets the latest 10 day(s).
| Time | Temp. | Humidity | Pressure | Rain* | Wind** | Luminosity | Snow |
|---|---|---|---|---|---|---|---|
| 1777737467 | 18.33° C | 58% | 1024.8 hPa | 0 mm | - | 551 W/m² | - |
| 1777737164 | 18.33° C | 56% | 1024.8 hPa | 0 mm | - | 523 W/m² | - |
| 1777736859 | 18.33° C | 59% | 1024.7 hPa | 0 mm | - | 515 W/m² | - |
| 1777736246 | 17.78° C | 61% | 1024.8 hPa | 0 mm | - | 500 W/m² | - |
| 1777735943 | 17.78° C | 62% | 1024.6 hPa | 0 mm | - | 472 W/m² | - |
| 1777735640 | 17.22° C | 64% | 1024.9 hPa | 0 mm | - | 473 W/m² | - |
| 1777735337 | 17.78° C | 62% | 1024.8 hPa | 0 mm | - | 466 W/m² | - |
| 1777735035 | 17.22° C | 64% | 1024.8 hPa | 0 mm | - | 438 W/m² | - |
| 1777734732 | 17.78° C | 63% | 1024.7 hPa | 0 mm | - | 426 W/m² | - |
| 1777734429 | 17.78° C | 63% | 1024.7 hPa | 0 mm | - | 401 W/m² | - |
| 1777734126 | 17.22° C | 63% | 1024.7 hPa | 0 mm | - | 399 W/m² | - |
| 1777733822 | 16.67° C | 64% | 1024.6 hPa | 0 mm | - | 389 W/m² | - |
| 1777733215 | 16.67° C | 62% | 1024.6 hPa | 0 mm | - | 362 W/m² | - |
| 1777732912 | 16.67° C | 64% | 1024.3 hPa | 0 mm | - | 348 W/m² | - |
| 1777732608 | 16.11° C | 63% | 1024.4 hPa | 0 mm | - | 337 W/m² | - |
| 1777732306 | 16.11° C | 64% | 1024.5 hPa | 0 mm | - | 319 W/m² | - |
| 1777732003 | 16.11° C | 64% | 1024.5 hPa | 0 mm | - | 312 W/m² | - |
| 1777731700 | 15.56° C | 68% | 1024.1 hPa | 0 mm | - | 290 W/m² | - |
| 1777731397 | 15° C | 67% | 1024.4 hPa | 0 mm | - | 278 W/m² | - |
| 1777731095 | 15° C | 68% | 1024.4 hPa | 0 mm | - | 265 W/m² | - |
| 1777730793 | 15° C | 70% | 1024.3 hPa | 0 mm | - | 256 W/m² | - |
| 1777730490 | 14.44° C | 71% | 1024.2 hPa | 0 mm | - | 238 W/m² | - |
| 1777730186 | 14.44° C | 71% | 1024.4 hPa | 0 mm | - | 224 W/m² | - |
| 1777729883 | 14.44° C | 72% | 1024.5 hPa | 0 mm | - | 212 W/m² | - |
| 1777729579 | 14.44° C | 72% | 1024.5 hPa | 0 mm | - | 199 W/m² | - |
* Rain latest hour (hover to see other rain measurements)
** Current wind speed in m/s (hover to see current wind gust speed)